Location: Cluny
(50.9333°N, 112.8167°W)
Time: 01:01:08
(UTC-06:00)

Amateur Radio Satellites - All Passes

Search period start: 03 September 2014 00:31
Search period end: 04 September 2014 00:31
Location: Cluny, 50.9333°N, 112.8167°W

Satellite Date Start Highest point End Downlink Frequencies (MHz)
Time Altitude Azimuth
Sapphire 03 Sep 01:14:13 01:19:37 61° 48° (NE) 01:24:59 437.095 MHz 1200 baud AX-25 AFSK
KITSAT 1 03 Sep 01:31:45 01:39:44 59° 318° (NW) 01:47:44 435.175 FM
PCSat 03 Sep 01:43:21 01:48:49 85° 235° (SW) 01:54:15 145.825 MHz
Oscar 19 03 Sep 01:47:24 01:50:05 14° 86° (E) 01:52:46 437.125 CW, 437.150 USB
AO-40 03 Sep 01:50:23 03:06:44 14° 221° (SW) 04:56:35 Beacon 2401.320
Saudisat 1A 03 Sep 01:55:52 01:58:52 18° 343° (NNW) 02:01:53 436.775 MHz
Oscar 16 03 Sep 02:21:42 02:26:09 28° 93° (E) 02:30:33 437.025 USB, Beacon 2401.1428
ITAMSAT 1 03 Sep 02:27:44 02:30:30 14° 86° (E) 02:33:15 435.822 SSB
Uribyol 2 03 Sep 02:36:13 02:39:44 18° 89° (E) 02:43:14 436.500 FM
AO-27 03 Sep 02:56:41 03:00:58 25° 92° (E) 03:05:13 436.795 MHz FM
Sapphire 03 Sep 02:58:07 03:02:44 29° 248° (WSW) 03:07:19 437.095 MHz 1200 baud AX-25 AFSK
AO-Echo 03 Sep 03:24:15 03:28:45 44° 99° (E) 03:33:16 ?
Oscar 19 03 Sep 03:25:00 03:30:15 84° 105° (ESE) 03:35:27 437.125 CW, 437.150 USB
OPAL 03 Sep 03:25:52 03:29:41 22° 53° (NE) 03:33:33 ?
PCSat 03 Sep 03:28:08 03:31:28 17° 255° (WSW) 03:34:47 145.825 MHz
SO-50 03 Sep 03:29:28 03:33:19 29° 118° (ESE) 03:37:16 436.795 FM
KITSAT 1 03 Sep 03:29:56 03:36:54 30° 346° (NNW) 03:43:52 435.175 FM
Saudisat 1A 03 Sep 03:37:37 03:40:07 15° 7° (N) 03:42:37 436.775 MHz
JAS-1B 03 Sep 03:40:30 03:47:11 52° 98° (E) 03:52:56 435.800 - 435.900 CW/SSB
Gurwin Techsat 1B 03 Sep 03:44:45 03:49:29 32° 94° (E) 03:54:11 435.225 FM
Oscar 16 03 Sep 04:00:44 04:05:46 51° 292° (WNW) 04:10:47 437.025 USB, Beacon 2401.1428
ITAMSAT 1 03 Sep 04:05:33 04:10:47 86° 106° (ESE) 04:15:59 435.822 SSB
Uribyol 2 03 Sep 04:14:36 04:19:49 78° 288° (WNW) 04:25:01 436.500 FM
AO-7 03 Sep 04:26:25 04:32:05 20° 86° (E) 04:37:42 29.400 - 29.500 MHz
TMSAT-1 03 Sep 04:33:39 04:38:55 59° 101° (E) 04:44:08 436.925 FM
AO-27 03 Sep 04:35:45 04:40:49 56° 292° (WNW) 04:45:53 436.795 MHz FM
OPAL 03 Sep 05:02:57 05:08:03 76° 253° (WSW) 05:13:16 ?
AO-Echo 03 Sep 05:03:24 05:07:24 28° 298° (WNW) 05:11:23 ?
Oscar 19 03 Sep 05:05:23 05:08:59 19° 305° (NW) 05:12:35 437.125 CW, 437.150 USB
UOSAT-12 03 Sep 05:08:57 05:12:44 25° 116° (ESE) 05:16:34 437.025 FM, 437.400 FM
SO-50 03 Sep 05:09:13 05:13:40 53° 318° (NW) 05:18:14 436.795 FM
Saudisat 1A 03 Sep 05:17:14 05:21:05 28° 31° (NNE) 05:24:55 436.775 MHz
STRAND 1 03 Sep 05:17:54 05:19:47 12° 49° (NE) 05:21:41 ?
Gurwin Techsat 1B 03 Sep 05:24:34 05:29:38 46° 294° (WNW) 05:34:40 435.225 FM
KITSAT 1 03 Sep 05:27:57 05:34:56 30° 15° (NNE) 05:41:54 435.175 FM
JAS-1B 03 Sep 05:31:27 05:37:37 35° 303° (WNW) 05:43:00 435.800 - 435.900 CW/SSB
Oscar 16 03 Sep 05:42:41 05:44:01 11° 313° (NW) 05:45:20 437.025 USB, Beacon 2401.1428
ITAMSAT 1 03 Sep 05:46:08 05:49:40 19° 305° (NW) 05:53:12 435.822 SSB
Uribyol 2 03 Sep 05:55:29 05:58:31 16° 308° (NW) 06:01:33 436.500 FM
Uosat F 03 Sep 05:56:20 06:01:19 64° 103° (ESE) 06:06:17 435.120 FM
Hamsat 03 Sep 06:13:53 06:15:52 13° 86° (E) 06:17:51 145.90 MHz
TMSAT-1 03 Sep 06:14:09 06:18:31 27° 301° (WNW) 06:22:52 436.925 FM
AO-27 03 Sep 06:17:29 06:19:18 12° 312° (NW) 06:21:07 436.795 MHz FM
AO-7 03 Sep 06:17:56 06:26:17 77° 108° (ESE) 06:34:34 29.400 - 29.500 MHz
OPAL 03 Sep 06:45:42 06:47:50 13° 273° (W) 06:49:59 ?
UOSAT-12 03 Sep 06:47:55 06:52:33 63° 316° (NW) 06:57:16 437.025 FM, 437.400 FM
SO-50 03 Sep 06:51:52 06:55:14 20° 342° (NNW) 06:58:39 436.795 FM
STRAND 1 03 Sep 06:53:00 06:58:00 58° 69° (ENE) 07:03:00 ?
Saudisat 1A 03 Sep 06:56:39 07:01:04 70° 232° (SW) 07:05:27 436.775 MHz
RS-15 03 Sep 07:01:09 07:10:09 31° 105° (ESE) 07:19:03 29.354 - 29.394 USB, Beacon 29.352 USB
JAS-2 03 Sep 07:02:44 07:07:35 36° 97° (E) 07:12:45 435.800 - 435.900 CW/SSB, 435.910 FM
Gurwin Techsat 1B 03 Sep 07:08:11 07:08:23 10° 315° (NW) 07:08:34 435.225 FM
KITSAT 1 03 Sep 07:24:03 07:32:04 60° 42° (NE) 07:40:02 435.175 FM
Uosat F 03 Sep 07:35:50 07:39:44 23° 302° (WNW) 07:43:36 435.120 FM
SO-67 03 Sep 07:40:23 07:42:02 13° 89° (E) 07:43:40 435.3500 MHz FM
Hamsat 03 Sep 07:48:04 07:52:28 84° 285° (WNW) 07:56:47 145.90 MHz
AO-7 03 Sep 08:11:18 08:18:28 34° 310° (NW) 08:25:37 29.400 - 29.500 MHz
UOSAT-12 03 Sep 08:29:58 08:33:35 21° 339° (NNW) 08:37:15 437.025 FM, 437.400 FM
STRAND 1 03 Sep 08:33:32 08:37:34 23° 268° (W) 08:41:38 ?
SO-50 03 Sep 08:34:36 08:37:30 16° 6° (N) 08:40:25 436.795 FM
Saudisat 1A 03 Sep 08:38:36 08:39:51 11° 251° (WSW) 08:41:05 436.775 MHz
JAS-2 03 Sep 08:47:58 08:52:48 39° 295° (WNW) 08:57:55 435.800 - 435.900 CW/SSB, 435.910 FM
RS-15 03 Sep 09:10:07 09:21:09 90° 310° (NW) 09:32:11 29.354 - 29.394 USB, Beacon 29.352 USB
SO-67 03 Sep 09:12:01 09:15:26 55° 287° (WNW) 09:18:49 435.3500 MHz FM
KITSAT 1 03 Sep 09:19:46 09:27:21 46° 245° (WSW) 09:34:54 435.175 FM
Hamsat 03 Sep 09:25:41 09:27:44 13° 305° (NW) 09:29:47 145.90 MHz
HO-68 03 Sep 09:33:21 09:39:07 25° 90° (E) 09:44:50 435.675 MHz FM
UKube-1 03 Sep 09:53:27 09:55:41 14° 88° (E) 09:57:56 145.840 MHz, 145.915 MHz
Oscar 11 03 Sep 09:56:38 09:57:26 10° 85° (E) 09:58:15 145.825 FM, Beacon 2401.500 USB
AO-7 03 Sep 10:05:25 10:08:50 13° 336° (NNW) 10:12:15 29.400 - 29.500 MHz
ISS 03 Sep 10:09:06 10:11:32 19° 142° (SE) 10:13:58 145.800 FM
UOSAT-12 03 Sep 10:12:30 10:15:24 16° 3° (N) 10:18:19 437.025 FM, 437.400 FM
SO-50 03 Sep 10:15:23 10:19:31 29° 30° (NNE) 10:23:43 436.795 FM
FUNcube-1 03 Sep 10:32:30 10:33:54 11° 85° (E) 10:35:19 145.950 - 145.970 MHz USB
HO-68 03 Sep 11:20:24 11:27:35 79° 291° (WNW) 11:34:45 435.675 MHz FM
RS-15 03 Sep 11:24:29 11:34:53 46° 340° (NNW) 11:45:23 29.354 - 29.394 USB, Beacon 29.352 USB
UKube-1 03 Sep 11:28:06 11:32:28 79° 287° (WNW) 11:36:49 145.840 MHz, 145.915 MHz
Oscar 11 03 Sep 11:29:58 11:34:23 80° 104° (ESE) 11:38:45 145.825 FM, Beacon 2401.500 USB
ISS 03 Sep 11:44:32 11:47:51 68° 161° (SSE) 11:51:10 145.800 FM
UOSAT-12 03 Sep 11:53:06 11:57:06 26° 27° (NNE) 12:01:05 437.025 FM, 437.400 FM
SO-50 03 Sep 11:55:47 12:00:33 76° 231° (SW) 12:05:23 436.795 FM
FUNcube-1 03 Sep 12:06:28 12:11:02 80° 104° (ESE) 12:15:39 145.950 - 145.970 MHz USB
Oscar 16 03 Sep 12:07:44 12:10:10 13° 50° (NE) 12:12:35 437.025 USB, Beacon 2401.1428
MaSat-1 03 Sep 12:15:03 12:18:10 17° 102° (ESE) 12:21:20 437.345 MHz
JAS-1B 03 Sep 12:40:40 12:47:28 25° 50° (NE) 12:53:35 435.800 - 435.900 CW/SSB
AO-27 03 Sep 12:43:56 12:46:11 13° 49° (NE) 12:48:27 436.795 MHz FM
AO-Echo 03 Sep 13:05:41 13:08:50 17° 56° (NE) 13:11:56 ?
UKube-1 03 Sep 13:06:03 13:07:58 13° 306° (NW) 13:09:53 145.840 MHz, 145.915 MHz
Oscar 11 03 Sep 13:07:23 13:10:01 16° 303° (WNW) 13:12:39 145.825 FM, Beacon 2401.500 USB
Oscar 19 03 Sep 13:08:28 13:13:06 34° 63° (ENE) 13:17:46 437.125 CW, 437.150 USB
HO-68 03 Sep 13:09:04 13:14:20 23° 313° (NW) 13:19:36 435.675 MHz FM
ISS 03 Sep 13:21:16 13:24:37 76° 1° (N) 13:27:57 145.800 FM
UOSAT-12 03 Sep 13:33:05 13:37:52 90° 63° (ENE) 13:42:34 437.025 FM, 437.400 FM
Gurwin Techsat 1B 03 Sep 13:33:47 13:36:56 16° 52° (NE) 13:40:05 435.225 FM
SO-50 03 Sep 13:38:01 13:40:23 14° 250° (WSW) 13:42:46 436.795 FM
RS-15 03 Sep 13:40:01 13:50:16 42° 13° (NNE) 14:00:44 29.354 - 29.394 USB, Beacon 29.352 USB
AO-7 03 Sep 13:42:42 13:47:21 17° 31° (NNE) 13:52:00 29.400 - 29.500 MHz
Oscar 16 03 Sep 13:43:28 13:48:35 64° 70° (ENE) 13:53:44 437.025 USB, Beacon 2401.1428
FUNcube-1 03 Sep 13:44:00 13:46:54 17° 302° (WNW) 13:49:49 145.950 - 145.970 MHz USB
MaSat-1 03 Sep 13:49:23 13:54:28 88° 121° (ESE) 13:59:38 437.345 MHz
ITAMSAT 1 03 Sep 13:50:00 13:54:42 36° 63° (ENE) 13:59:24 435.822 SSB
Uribyol 2 03 Sep 13:58:40 14:03:32 44° 66° (ENE) 14:08:26 436.500 FM
AO-27 03 Sep 14:19:39 14:24:45 62° 69° (ENE) 14:29:52 436.795 MHz FM
TMSAT-1 03 Sep 14:21:04 14:25:24 27° 59° (ENE) 14:29:45 436.925 FM
JAS-1B 03 Sep 14:27:34 14:37:02 76° 70° (ENE) 14:45:12 435.800 - 435.900 CW/SSB
AO-Echo 03 Sep 14:42:06 14:47:03 84° 255° (WSW) 14:51:54 ?
Oscar 19 03 Sep 14:47:28 14:52:22 42° 262° (W) 14:57:19 437.125 CW, 437.150 USB
ISS 03 Sep 14:58:03 15:01:21 61° 201° (SSW) 15:04:38 145.800 FM
Gurwin Techsat 1B 03 Sep 15:10:48 15:16:06 78° 72° (ENE) 15:21:26 435.225 FM
UOSAT-12 03 Sep 15:14:26 15:17:23 17° 249° (WSW) 15:20:18 437.025 FM, 437.400 FM
Oscar 16 03 Sep 15:24:27 15:28:24 22° 270° (W) 15:32:23 437.025 USB, Beacon 2401.1428
MaSat-1 03 Sep 15:27:59 15:32:07 24° 322° (NW) 15:36:15 437.345 MHz
ITAMSAT 1 03 Sep 15:29:21 15:34:11 39° 263° (W) 15:39:02 435.822 SSB
AO-7 03 Sep 15:30:25 15:38:10 45° 56° (NE) 15:45:55 29.400 - 29.500 MHz
Uosat F 03 Sep 15:37:12 15:41:17 26° 59° (ENE) 15:45:21 435.120 FM
Uribyol 2 03 Sep 15:38:35 15:43:10 32° 265° (W) 15:47:47 436.500 FM
RS-15 03 Sep 15:53:31 16:04:34 75° 44° (NE) 16:15:59 29.354 - 29.394 USB, Beacon 29.352 USB
TMSAT-1 03 Sep 15:59:48 16:05:00 59° 259° (W) 16:10:16 436.925 FM
AO-27 03 Sep 16:00:40 16:04:41 23° 269° (W) 16:08:45 436.795 MHz FM
Sapphire 03 Sep 16:03:02 16:06:34 18° 106° (ESE) 16:10:06 437.095 MHz 1200 baud AX-25 AFSK
JAS-1B 03 Sep 16:19:49 16:28:05 33° 268° (W) 16:35:30 435.800 - 435.900 CW/SSB
AO-Echo 03 Sep 16:24:24 16:26:34 13° 274° (W) 16:28:43 ?
PCSat 03 Sep 16:30:34 16:35:14 31° 112° (ESE) 16:39:57 145.825 MHz
ISS 03 Sep 16:35:26 16:37:36 16° 219° (SW) 16:39:46 145.800 FM
Gurwin Techsat 1B 03 Sep 16:53:04 16:56:42 19° 272° (W) 17:00:21 435.225 FM
OPAL 03 Sep 17:08:37 17:12:20 19° 92° (E) 17:16:00 ?
MaSat-1 03 Sep 17:10:10 17:10:55 10° 345° (NNW) 17:11:41 437.345 MHz
Hamsat 03 Sep 17:11:47 17:14:50 19° 60° (ENE) 17:17:54 145.90 MHz
Uosat F 03 Sep 17:14:51 17:19:46 56° 259° (WSW) 17:24:43 435.120 FM
JAS-2 03 Sep 17:21:05 17:25:53 29° 61° (ENE) 17:30:23 435.800 - 435.900 CW/SSB, 435.910 FM
AO-7 03 Sep 17:22:41 17:30:50 57° 257° (WSW) 17:39:01 29.400 - 29.500 MHz
Sapphire 03 Sep 17:43:51 17:49:16 90° 306° (NW) 17:54:44 437.095 MHz 1200 baud AX-25 AFSK
RS-15 03 Sep 18:06:17 18:16:18 42° 249° (WSW) 18:26:40 29.354 - 29.394 USB, Beacon 29.352 USB
PCSat 03 Sep 18:13:04 18:18:24 58° 313° (NW) 18:23:47 145.825 MHz
SO-67 03 Sep 18:19:19 18:20:26 11° 59° (ENE) 18:21:33 435.3500 MHz FM
HO-68 03 Sep 18:26:15 18:27:58 11° 32° (NNE) 18:29:42 435.675 MHz FM
Hamsat 03 Sep 18:46:04 18:50:22 63° 259° (W) 18:54:44 145.90 MHz
OPAL 03 Sep 18:46:32 18:51:47 75° 291° (WNW) 18:56:58 ?
STRAND 1 03 Sep 19:00:08 19:02:32 13° 86° (E) 19:04:55 ?
JAS-2 03 Sep 19:05:13 19:10:51 51° 260° (W) 19:16:03 435.800 - 435.900 CW/SSB, 435.910 FM
AO-7 03 Sep 19:22:20 19:25:36 13° 280° (W) 19:28:53 29.400 - 29.500 MHz
Sapphire 03 Sep 19:28:52 19:33:25 26° 329° (NNW) 19:37:59 437.095 MHz 1200 baud AX-25 AFSK
SO-67 03 Sep 19:49:29 19:52:57 77° 258° (WSW) 19:56:27 435.3500 MHz FM
PCSat 03 Sep 19:58:58 20:02:58 20° 336° (NNW) 20:07:00 145.825 MHz
HO-68 03 Sep 20:07:24 20:13:40 35° 55° (NE) 20:19:57 435.675 MHz FM
MaSat-1 03 Sep 20:25:45 20:29:15 19° 34° (NNE) 20:32:28 437.345 MHz
OPAL 03 Sep 20:26:43 20:29:51 16° 311° (NW) 20:32:59 ?
STRAND 1 03 Sep 20:37:25 20:42:33 82° 105° (ESE) 20:47:41 ?
UKube-1 03 Sep 20:53:20 20:56:49 24° 61° (ENE) 21:00:18 145.840 MHz, 145.915 MHz
Oscar 11 03 Sep 20:55:31 20:58:23 18° 58° (ENE) 21:01:16 145.825 FM, Beacon 2401.500 USB
Sapphire 03 Sep 21:15:43 21:18:45 15° 354° (N) 21:21:47 437.095 MHz 1200 baud AX-25 AFSK
FUNcube-1 03 Sep 21:33:27 21:36:13 17° 58° (ENE) 21:39:02 145.950 - 145.970 MHz USB
PCSat 03 Sep 21:45:33 21:48:32 15° 3° (N) 21:51:30 145.825 MHz
HO-68 03 Sep 21:53:56 22:01:01 65° 256° (WSW) 22:08:09 435.675 MHz FM
KITSAT 1 03 Sep 22:02:02 22:06:27 16° 99° (E) 22:10:53 435.175 FM
MaSat-1 03 Sep 22:02:20 22:07:04 82° 57° (ENE) 22:11:09 437.345 MHz
STRAND 1 03 Sep 22:17:37 22:21:11 19° 305° (NW) 22:24:44 ?
UKube-1 03 Sep 22:28:36 22:32:47 47° 260° (W) 22:37:00 145.840 MHz, 145.915 MHz
Oscar 11 03 Sep 22:29:45 22:34:06 71° 257° (WSW) 22:38:29 145.825 FM, Beacon 2401.500 USB
Saudisat 1A 03 Sep 22:46:41 22:50:59 54° 125° (SE) 22:55:19 436.775 MHz
Sapphire 03 Sep 23:00:33 23:04:22 19° 21° (NNE) 23:08:10 437.095 MHz 1200 baud AX-25 AFSK
FUNcube-1 03 Sep 23:07:54 23:12:07 70° 258° (WSW) 23:16:29 145.950 - 145.970 MHz USB
PCSat 03 Sep 23:29:34 23:33:57 24° 29° (NNE) 23:38:19 145.825 MHz
MaSat-1 03 Sep 23:40:51 23:43:12 14° 260° (W) 23:45:25 437.345 MHz
HO-68 03 Sep 23:46:45 23:50:11 14° 277° (W) 23:53:38 435.675 MHz FM
KITSAT 1 03 Sep 23:52:21 00:00:19 65° 121° (ESE) 00:08:18 435.175 FM
